This is the latest recevied weather packets stored in our database for station/object K3XY-2. If no packets are shown the sender has not sent any weather packets the latest 10 day(s).
| Time | Temp. | Humidity | Pressure | Rain* | Wind** | Luminosity | Snow |
|---|---|---|---|---|---|---|---|
| 1778095749 | 16.67° C | 91% | 1006.7 hPa | 0 mm | - | - | - |
| 1778095149 | 16.67° C | 92% | 1006.6 hPa | 0 mm | - | - | - |
| 1778094549 | 16.11° C | 91% | 1006.9 hPa | 0 mm | - | - | - |
| 1778093949 | 16.11° C | 91% | 1006.9 hPa | 0 mm | - | - | - |
| 1778093349 | 16.11° C | 91% | 1006.9 hPa | 0 mm | - | - | - |
| 1778092749 | 16.11° C | 91% | 1007 hPa | 0 mm | - | - | - |
| 1778092149 | 16.11° C | 91% | 1007.2 hPa | 0 mm | - | - | - |
| 1778091549 | 16.11° C | 91% | 1007.4 hPa | 0 mm | - | - | - |
| 1778090949 | 16.11° C | 91% | 1007.4 hPa | 0 mm | - | - | - |
| 1778090349 | 16.11° C | 91% | 1007.4 hPa | 0 mm | - | - | - |
| 1778089750 | 15.56° C | 90% | 1007.3 hPa | 0 mm | - | - | - |
| 1778089149 | 15.56° C | 90% | 1007.4 hPa | 0 mm | - | - | - |
| 1778088549 | 16.11° C | 90% | 1007.4 hPa | 0.25 mm | - | - | - |
| 1778087949 | 16.11° C | 91% | 1007.3 hPa | 0.25 mm | - | - | - |
| 1778087349 | 16.11° C | 91% | 1007.4 hPa | 0.51 mm | - | - | - |
| 1778086749 | 16.11° C | 91% | 1007.6 hPa | 0.51 mm | - | - | - |
| 1778086149 | 16.11° C | 91% | 1007.3 hPa | 1.02 mm | - | - | - |
| 1778085549 | 16.11° C | 91% | 1007.3 hPa | 1.52 mm | - | - | - |
| 1778084949 | 16.11° C | 91% | 1007.5 hPa | 1.78 mm | - | - | - |
| 1778084349 | 16.11° C | 91% | 1007.6 hPa | 2.29 mm | - | - | - |
| 1778083749 | 15.56° C | 91% | 1007.4 hPa | 2.54 mm | - | - | - |
| 1778083149 | 15.56° C | 90% | 1008 hPa | 3.05 mm | - | - | - |
| 1778082549 | 15.56° C | 90% | 1008.4 hPa | 3.05 mm | - | - | - |
| 1778081949 | 15.56° C | 89% | 1008.6 hPa | 2.79 mm | - | - | - |
| 1778081349 | 15.56° C | 89% | 1008.7 hPa | 2.54 mm | - | - | - |
* Rain latest hour (hover to see other rain measurements)
** Current wind speed in m/s (hover to see current wind gust speed)